Location: Newark
(50.4348°N, 30.5552°E)
Time: 11:36:36
(UTC+00:00)

Tiros 1 despin weight - Pass Details

Date: 02 February 2020
Orbit: 594 x 642 km, 48.2° (Epoch: 22 February)

Event Time Altitude Azimuth Distance (km) Brightness Sun altitude
Rises 11:53:58 0° 279° (W) 2,883 ? 19.0°
Reaches altitude 10° 11:56:38 10° 265° (W) 1,984 ? 18.8°
Maximum altitude 12:00:13 23° 214° (SSW) 1,331 ? 18.6°
Drops below altitude 10° 12:03:50 10° 162° (SSE) 2,000 ? 18.3°
Sets 12:06:31 0° 147° (SSE) 2,913 ? 18.1°
